Regional Weather Roundup
Issued by NWS

Home | Current Version | Previous Version | Graphics & Text | Print | Product List | Glossary On
Versions: 1 2 3 4 5 6 7 8 9 10 11 12 13 14 15 16 17 18 19 20 21 22 23 24 25 26 27
000
ASUS45 KBOU 220007
RWRCO

WEATHER ROUNDUP FOR COLORADO
NATIONAL WEATHER SERVICE DENVER/BOULDER CO
600 PM MDT THU SEP 21 2017

NOTE: "FAIR" INDICATES FEW OR NO CLOUDS BELOW 12000 FEET WITH NO
SIGNIFICANT WEATHER AND/OR OBSTRUCTIONS TO VISIBILITY.

COZ001>005-013-030-031-220100-
...NORTHWEST COLORADO...

CITY           SKY/WX    TMP DP  RH WIND       PRES   REMARKS
CRAIG          FAIR      76  16  10 SW17G30   29.73S
HAYDEN         FAIR      75  20  12 SW22G31   29.76S
MEEKER         FAIR      75  17  11 S24G39    29.76S
RABBIT EARS PA FAIR      55  21  26 SW9G24    30.07S
STEAMBOAT SPGS FAIR      75  20  13 S10G18    29.78S
WALDEN         FAIR      70  14  11 SW18G26   29.90S
$$

COZ006>008-011-220100-
...WEST CENTRAL VALLEYS...

CITY           SKY/WX    TMP DP  RH WIND       PRES   REMARKS
GRAND JUNCTION FAIR      84  21  10 S29G37    29.66F
MONTROSE       FAIR      79  20  11 SW22G33   29.77R
EAGLE          FAIR      77  24  14 W22G31    29.80S
RIFLE          FAIR      81  16   9 S23G32    29.73R
DELTA          FAIR      84  19   9 SW21G31   29.74S
NUCLA          FAIR      77  18  10 SW29G41   29.80F
$$

COZ017>023-064>068-220100-
...SOUTHWEST COLORADO...

CITY           SKY/WX    TMP DP  RH WIND       PRES   REMARKS
DURANGO        FAIR      75  20  12 S21G29    29.94S
CORTEZ         FAIR      75  20  12 SW20G26   29.85S
PAGOSA SPRINGS FAIR      73  11   9 SW21G31   30.02S
TELLURIDE      FAIR      64  16  15 S22G46    30.06S
WOLF CREEK PAS FAIR      48  21  34 S31G48    30.27F
$$

COZ009-010-012-014-032>034-037-058>063-220100-
...CENTRAL COLORADO...

CITY           SKY/WX    TMP DP  RH WIND       PRES   REMARKS
ASPEN          FAIR      74  21  13 S8        29.87S
BUENA VISTA    FAIR      73  15  11 S10       29.92S
COPPER MTN     FAIR      59   7  12 S13G25    30.21F
BERTHOUD PASS  FAIR      52  43  71 W16G23    30.25S
COTTONWOOD PAS FAIR      70  14  11 S12G18    30.07S
GUNNISON       FAIR      72  24  16 S17G25    29.92R
KREMMLING      FAIR      81   9   6 W13G21    29.84F
LEADVILLE      FAIR      63  11  13 SW8       30.03F
MONARCH PASS   FAIR      52  18  25 SW33G41   30.33S
SALIDA         FAIR      76  20  12 S15G24    29.99R
SUNLIGHT       FAIR      52  21  30 SW13G31   30.11F
WILKERSON PASS FAIR      55  18  22 SW8G23    30.19S
$$

COZ069>075-220100-
...SAN LUIS VALLEY/SANGRE DE CRISTO MOUNTAINS...

CITY           SKY/WX    TMP DP  RH WIND       PRES   REMARKS
ALAMOSA        FAIR      72  19  13 SW21G29   29.98S
DEL NORTE      FAIR      70  26  19 SW13G22   30.01S
LA VETA PASS   FAIR      59  21  23 S17       30.25S
SAGUACHE       FAIR      70  23  17 SW20      30.00R
$$

COZ035-036-038>040-220100-
...NORTHERN COLORADO FRONT RANGE...

CITY           SKY/WX    TMP DP  RH WIND       PRES   REMARKS
DENVER INTL AP FAIR      87  22   9 S21G26    29.66S
DMNS CITY PARK   N/A     85  23  10 S17G23    29.64S
AURORA         MOSUNNY   85  21   9 S18G28    29.68S
FRONT RANGE AP PTCLDY    90  23   9 S16G24    29.69S
ERIE MUNI ARPT FAIR      85  25  11 N12G20    29.67S
BOULDER MUN AP FAIR      84  30  14 N7        29.65S
CENTENNIAL     FAIR      84  19   9 S23       29.70F
BROOMFIELD     MOSUNNY   86  27  11 NW15      29.67F
FORT COLLINS   FAIR      87  27  11 NE9       29.65
LONGMONT       FAIR      85  32  14 N7        29.65F
$$

COZ041-046-047-076>085-087-088-220100-
...PIKES PEAK/PALMER DIVIDE AND SOUTHERN FOOTHILLS...

CITY           SKY/WX    TMP DP  RH WIND       PRES   REMARKS
COLO. SPRINGS  FAIR      82  24  12 S15       29.81S
A. F. ACADEMY  FAIR      79  20  11 SE18      29.81S
SCHRIEVER AFB  FAIR      79  22  12 S9        29.81F
CHEYENNE MTN   FAIR      74  20  13 S10       29.81S
ELLICOTT         N/A    N/A N/A N/A SW13      29.80S
FALCON         FAIR      78  19  11 S15       29.86F
FORT CARSON    FAIR      82  24  11 S14       29.77S
LIMON          FAIR      83  20   9 S20G26    29.74S
MONUMENT HILL  FAIR      73  27  17 S20G26    29.86S
CANON CITY     SUNNY     88  27  11 SW15      29.74S
WALSENBURG     FAIR      82  25  12 SW20G28   29.84S
TRINIDAD       FAIR      82  27  13 SW17G26   29.83S
$$

COZ042>045-048>051-090-091-220100-
...NORTHEAST COLORADO...

CITY           SKY/WX    TMP DP  RH WIND       PRES   REMARKS
GREELEY ARPT   FAIR      85  36  17 NE6       29.62F
AKRON          FAIR      88  20   8 S14       29.68S
BURLINGTON     FAIR      89  28  11 S18       29.69F
WRAY           FAIR      91  25   9 S14G21    29.63S
YUMA           FAIR      82  32  16 S8        29.65S
STERLING       FAIR      86  45  23 NE7       29.61S
HOLYOKE        FAIR      91  30  11 S9        29.62
FORT MORGAN    FAIR      88  25  10 S7        29.64S
$$

COZ086-089-092>099-220100-
...SOUTHEAST COLORADO...

CITY           SKY/WX    TMP DP  RH WIND       PRES   REMARKS
PUEBLO         FAIR      88  26  10 SW20G29   29.70R
LA JUNTA       FAIR      92  27   9 S21G29    29.67F
LAMAR          FAIR      92  31  11 S23G32    29.65F
SPRINGFIELD      N/A     85  34  16 S21G33    29.78R
$$




USA.gov is the U.S. government's official web portal to all federal, state and local government web resources and services.